Weather History for Palm Springs, CA

Change the Weather History Date:

Thursday, October 13, 2011

  Actual Average Record
Temperature  
Mean Temperature 87 °F 77 °F  
Max Temperature 104 °F 90 °F 109 °F (1936)
Min Temperature 70 °F 63 °F 40 °F (1928)
Degree Days  
Heating Degree Days 0 0  
Month to date heating degree days 0 0  
Since 1 July heating degree days 0 0  
Cooling Degree Days 22 12  
Month to date cooling degree days 170 179  
Year to date cooling degree days 3891 3905  
Growing Degree Days 37 (Base 50)    
Moisture  
Dew Point 29 °F    
Average Humidity 13    
Maximum Humidity 22    
Minimum Humidity 4    
Precipitation  
Precipitation 0.00 in 0.02 in 0.15 in (1987)
Month to date precipitation T 0.14  
Year to date precipitation 2.39 4.03  
Since 1 July precipitation 0.92 1.09  
Snow  
Snow 0.00 in - - ()
Month to date snowfall 0.0  
Year to date snowfall 0.0  
Since 1 July snowfall 0.0  
Snow Depth 0.00 in    
Sea Level Pressure  
Sea Level Pressure 29.80 in    
Wind  
Wind Speed 5 mph (NNW)    
Max Wind Speed 12 mph    
Max Gust Speed 14 mph    
Visibility 10 miles    
Events      
T = Trace of Precipitation, MM = Missing Value Source: NWS Daily Summary

Daily Weather History Graph

Daily Weather History Graph

Search for Another Location

Airport:

Trip Planner

Search our weather history database for the weather conditions in past years. The results will help you decide how hot, cold, wet, or windy it might be!

Date:

Astronomy

Oct. 13, 2011 Rise Set
Actual Time 6:49 AM PDT 6:14 PM PDT
Civil Twilight 6:24 AM PDT 6:39 PM PDT
Nautical Twilight 5:55 AM PDT 7:08 PM PDT
Astronomical Twilight 5:26 AM PDT 7:37 PM PDT
Moon 7:01 PM PDT (10/13) 8:17 AM PDT (10/13)
Length of Visible Light 12h 15m
Length of Day
11h 25m
Full, 97% of the Moon is Illuminated
Oct 13
Full
Oct 19
Last Quarter
Oct 26
New
Nov 2
First Quarter
Nov 10
Full

Hourly Weather History & Observations

Time (PDT) Temp. Dew Point Humidity Pressure Visibility Wind Dir Wind Speed Gust Speed Precip Events Conditions
12:53 AM 77.0 °F 34.0 °F 21% 29.85 in 10.0 mi NNW 8.1 mph - N/A   Clear
1:53 AM 75.0 °F 30.9 °F 20% 29.85 in 10.0 mi NNW 9.2 mph - N/A   Clear
2:53 AM 75.9 °F 28.9 °F 18% 29.84 in 10.0 mi NW 6.9 mph - N/A   Clear
3:53 AM 75.0 °F 33.1 °F 22% 29.84 in 10.0 mi NW 8.1 mph - N/A   Clear
4:53 AM 72.0 °F 30.0 °F 21% 29.83 in 10.0 mi NNW 8.1 mph - N/A   Clear
5:53 AM 72.0 °F 27.0 °F 19% 29.83 in 10.0 mi NW 9.2 mph - N/A   Clear
6:53 AM 73.4 °F 28.4 °F 19% 29.85 in 10.0 mi NW 6.9 mph - N/A   Clear
7:53 AM 75.0 °F 32.0 °F 21% 29.86 in 10.0 mi NNW 6.9 mph - N/A   Clear
8:53 AM 84.0 °F 28.9 °F 14% 29.86 in 10.0 mi North 3.5 mph - N/A   Clear
9:53 AM 89.1 °F 35.1 °F 15% 29.86 in 10.0 mi Calm Calm - N/A   Clear
10:53 AM 93.9 °F 30.0 °F 10% 29.84 in 10.0 mi Calm Calm - N/A   Clear
11:53 AM 99.0 °F 17.1 °F 5% 29.82 in 10.0 mi SSE 3.5 mph - N/A   Clear
12:53 PM 100.0 °F 15.1 °F 5% 29.79 in 10.0 mi SSE 3.5 mph - N/A   Clear
1:53 PM 102.9 °F 15.1 °F 4% 29.75 in 10.0 mi Calm Calm - N/A   Clear
2:53 PM 102.9 °F 18.0 °F 5% 29.73 in 10.0 mi Variable 3.5 mph - N/A   Clear
3:53 PM 102.9 °F 21.9 °F 6% 29.72 in 10.0 mi ESE 5.8 mph - N/A   Clear
4:53 PM 100.0 °F 27.0 °F 8% 29.72 in 10.0 mi ESE 9.2 mph - N/A   Clear
5:53 PM 96.1 °F 35.1 °F 12% 29.72 in 10.0 mi East 5.8 mph - N/A   Clear
6:53 PM 90.0 °F 36.0 °F 15% 29.73 in 10.0 mi Calm Calm - N/A   Clear
7:53 PM 88.0 °F 34.0 °F 15% 29.76 in 10.0 mi NW 3.5 mph - N/A   Clear
8:53 PM 82.0 °F 35.1 °F 18% 29.78 in 10.0 mi NNW 5.8 mph - N/A   Clear
9:53 PM 81.0 °F 30.0 °F 16% 29.78 in 10.0 mi NW 6.9 mph - N/A   Clear
10:53 PM 81.0 °F 35.1 °F 19% 29.79 in 10.0 mi NW 6.9 mph - N/A   Clear
11:53 PM 80.1 °F 39.0 °F 23% 29.78 in 10.0 mi NW 6.9 mph - N/A   Clear